Regional Weather Roundup
Issued by NWS

Home | Current Version | Previous Version | Graphics & Text | Print | Product List | Glossary On
Versions: 1 2 3 4 5 6 7 8 9 10 11 12 13 14 15 16 17 18 19 20 21 22 23 24 25 26 27 28 29 30 31 32 33 34 35 36 37 38 39 40 41 42 43 44 45 46 47 48 49 50
000
ASUS43 KBIS 210702
RWRND

NORTH DAKOTA REGIONAL WEATHER ROUNDUP
NATIONAL WEATHER SERVICE BISMARCK ND
100 AM CST SAT JAN 21 2017

NOTE: "FAIR" INDICATES FEW OR NO CLOUDS BELOW 12,000 FEET WITH NO
SIGNIFICANT WEATHER AND/OR OBSTRUCTIONS TO VISIBILITY.


NDZ001>003-009>011-017-210800-
NORTHWEST NORTH DAKOTA

CITY           SKY/WX    TMP DP  RH WIND       PRES   REMARKS
WILLISTON      CLOUDY    20  19  96 CALM      29.31F
MINOT          CLOUDY    29  28  96 CALM      29.32S FOG
MINOT AFB      FOG       27  25  93 CALM      29.32S VSB 1
$$

NDZ018>021-031>035-040>046-210800-
SOUTHWEST NORTH DAKOTA

CITY           SKY/WX    TMP DP  RH WIND       PRES   REMARKS
BISMARCK       CLOUDY    32  30  92 NW5       29.32F FOG
DICKINSON      CLOUDY    28  25  88 NW9       29.27F WCI  19
GARRISON         N/A     24  21  88 CALM      29.31F
HETTINGER ARPT CLOUDY    26  23  88 NW12      29.30F WCI  16
$$

NDZ004>008-012>016-024-026-027-054-210800-
NORTHEAST NORTH DAKOTA

CITY           SKY/WX    TMP DP  RH WIND       PRES   REMARKS
GRAND FORKS    CLOUDY    36  32  85 SE10      29.42F
GRND FRKS AFB  CLOUDY    34  34  99 SE12      29.42F
DEVILS LAKE    LGT RAIN  33  32  96 SE8       29.37F VSB 1/2
$$

NDZ022-023-025-028>030-036>039-047>053-210800-
SOUTHEAST NORTH DAKOTA

CITY           SKY/WX    TMP DP  RH WIND       PRES   REMARKS
FARGO          CLOUDY    39  35  86 SE13      29.42S
JAMESTOWN      FOG       33  33 100 SE9       29.34F VSB 1/4
$$





USA.gov is the U.S. government's official web portal to all federal, state and local government web resources and services.